Weather History for KBFI - January, 2012

Change the Weather History Date:

Sunday, January 8, 2012

  Actual Average Record
Temperature  
Mean Temperature 44 °F -  
Max Temperature 48 °F 44 °F 55 °F (2002)
Min Temperature 39 °F 34 °F 18 °F (1949)
Degree Days  
Heating Degree Days 22    
Moisture  
Dew Point 39 °F    
Average Humidity 84    
Maximum Humidity 93    
Minimum Humidity 68    
Precipitation  
Precipitation 0.00 in - - ()
Sea Level Pressure  
Sea Level Pressure 30.31 in    
Wind  
Wind Speed 7 mph (SE)    
Max Wind Speed 13 mph    
Max Gust Speed -    
Visibility 10 miles    
Events      
Averages and records for this station are not official NWS values.
T = Trace of Precipitation, MM = Missing Value Source: NWS Daily Summary

Daily Weather History Graph

Daily Weather History Graph

Search for Another Location

Airport or City:

Trip Planner

Search our weather history database for the weather conditions in past years. The results will help you decide how hot, cold, wet, or windy it might be!

Date:

Astronomy

Jan. 08, 2012 Rise Set
Actual Time 7:56 AM PST 4:35 PM PST
Civil Twilight 7:20 AM PST 5:11 PM PST
Nautical Twilight 6:42 AM PST 5:49 PM PST
Astronomical Twilight 6:04 AM PST 6:27 PM PST
Moon 4:26 PM PST (1/8) 7:17 AM PST (1/8)
Length of Visible Light 9h 50m
Length of Day
8h 39m
Full, 100% of the Moon is Illuminated
Jan 8
Full
Jan 8
Full
Jan 16
Last Quarter
Jan 22
New
Jan 30
First Quarter

Hourly Weather History & Observations

Time (PST) Temp. Windchill Dew Point Humidity Pressure Visibility Wind Dir Wind Speed Gust Speed Precip Events Conditions
12:53 AM 43.0 °F 38.2 °F 39.9 °F 89% 30.39 in 10.0 mi SE 8.1 mph - N/A   Overcast
1:53 AM 44.1 °F 38.1 °F 39.0 °F 82% 30.38 in 10.0 mi SE 11.5 mph - N/A   Overcast
2:53 AM 43.0 °F 37.2 °F 39.0 °F 86% 30.39 in 10.0 mi SE 10.4 mph - N/A   Overcast
3:25 AM 42.8 °F 36.2 °F 39.2 °F 87% 30.37 in 10.0 mi SE 12.7 mph - N/A   Overcast
3:53 AM 43.0 °F 37.7 °F 39.0 °F 86% 30.37 in 10.0 mi SSE 9.2 mph - N/A   Overcast
4:09 AM 42.8 °F 37.5 °F 39.2 °F 87% 30.37 in 10.0 mi SE 9.2 mph - N/A   Overcast
4:53 AM 41.0 °F 37.1 °F 37.4 °F 87% 30.37 in 10.0 mi SSE 5.8 mph - N/A   Mostly Cloudy
5:53 AM 39.0 °F 34.8 °F 37.0 °F 93% 30.36 in 10.0 mi ESE 5.8 mph - N/A   Clear
6:53 AM 41.0 °F 37.1 °F 37.9 °F 89% 30.35 in 10.0 mi ESE 5.8 mph - N/A   Overcast
7:53 AM 39.9 °F 36.7 °F 37.0 °F 89% 30.35 in 10.0 mi SE 4.6 mph - N/A   Overcast
8:53 AM 41.0 °F 37.1 °F 39.0 °F 93% 30.34 in 10.0 mi SE 5.8 mph - N/A   Overcast
9:53 AM 42.1 °F 39.2 °F 39.0 °F 89% 30.35 in 10.0 mi SE 4.6 mph - N/A   Mostly Cloudy
10:53 AM 44.1 °F 40.1 °F 39.0 °F 82% 30.35 in 10.0 mi SE 6.9 mph - N/A   Overcast
11:53 AM 45.0 °F 41.2 °F 39.9 °F 82% 30.33 in 10.0 mi SSE 6.9 mph - N/A   Overcast
12:53 PM 46.4 °F 41.1 °F 39.2 °F 76% 30.31 in 10.0 mi SE 11.5 mph - N/A   Overcast
1:53 PM 48.0 °F - 37.9 °F 68% 30.29 in 10.0 mi SE 10.4 mph - N/A   Overcast
2:53 PM 48.9 °F - 39.9 °F 71% 30.28 in 10.0 mi SE 8.1 mph - N/A   Mostly Cloudy
3:53 PM 48.9 °F - 41.0 °F 74% 30.27 in 10.0 mi SE 4.6 mph - N/A   Mostly Cloudy
4:53 PM 46.0 °F - 39.9 °F 79% 30.26 in 10.0 mi Calm Calm - N/A   Mostly Cloudy
5:53 PM 45.0 °F - 39.9 °F 82% 30.26 in 10.0 mi Calm Calm - N/A   Mostly Cloudy
6:53 PM 42.1 °F - 39.0 °F 89% 30.25 in 10.0 mi Calm Calm - N/A   Partly Cloudy
7:53 PM 44.1 °F - 39.9 °F 85% 30.25 in 10.0 mi Calm Calm - N/A   Scattered Clouds
8:53 PM 43.0 °F 39.5 °F 39.9 °F 89% 30.23 in 10.0 mi SSE 5.8 mph - N/A   Mostly Cloudy
9:53 PM 43.0 °F 38.2 °F 39.0 °F 86% 30.23 in 10.0 mi SE 8.1 mph - N/A   Clear
10:53 PM 43.0 °F 40.3 °F 39.9 °F 89% 30.24 in 10.0 mi SE 4.6 mph - N/A   Overcast
11:53 PM 44.1 °F 40.8 °F 39.9 °F 85% 30.23 in 10.0 mi SSE 5.8 mph - N/A   Overcast